| time (UTC) | temp F | wind direction | speed knots | gust knots | rain 1hr in | rain 24hr in | rain mn in | humidity % | barometer mb |
| 20260831221543 | 69 | 174 | 0.0 | 2.6 | 0.00 | 0.01 | 0.00 | 64 | 1015.9 |
| 20260831220058 | 70 | 163 | 2.6 | 6.1 | 0.00 | 0.01 | 0.00 | 62 | 1015.8 |
| 20260831214546 | 70 | 161 | 0.9 | 4.3 | 0.00 | 0.01 | 0.00 | 61 | 1015.7 |
| 20260831213042 | 71 | 154 | 0.9 | 6.1 | 0.00 | 0.01 | 0.00 | 59 | 1015.8 |
| 20260831211548 | 72 | 177 | 0.9 | 5.2 | 0.00 | 0.01 | 0.00 | 58 | 1015.7 |
| 20260831210048 | 73 | 158 | 0.9 | 6.1 | 0.00 | 0.01 | 0.00 | 56 | 1015.8 |
| 20260831204540 | 74 | 236 | 1.7 | 6.1 | 0.00 | 0.01 | 0.00 | 53 | 1015.8 |
| 20260831203039 | 74 | 44 | 1.7 | 5.2 | 0.00 | 0.01 | 0.00 | 54 | 1015.9 |
| 20260831201546 | 73 | 212 | 0.9 | 7.0 | 0.00 | 0.01 | 0.00 | 56 | 1015.8 |
| 20260831200043 | 73 | 194 | 1.7 | 7.0 | 0.00 | 0.01 | 0.00 | 56 | 1015.8 |
| 20260831194613 | 75 | 150 | 1.7 | 7.8 | 0.00 | 0.01 | 0.00 | 50 | 1016.0 |
| 20260831193041 | 77 | 156 | 0.9 | 6.1 | 0.00 | 0.01 | 0.00 | 50 | 1016.2 |
| 20260831191540 | 78 | 115 | 1.7 | 7.0 | 0.00 | 0.01 | 0.00 | 41 | 1016.1 |
| 20260831190040 | 79 | 277 | 0.9 | 3.5 | 0.00 | 0.01 | 0.00 | 37 | 1016.2 |
| 20260831184554 | 78 | 148 | 0.0 | 3.5 | 0.00 | 0.01 | 0.00 | 39 | 1016.4 |
| 20260831183039 | 78 | 163 | 0.9 | 6.1 | 0.00 | 0.01 | 0.00 | 41 | 1016.3 |
| 20260831181533 | 78 | 178 | 0.9 | 3.5 | 0.00 | 0.01 | 0.00 | 42 | 1016.5 |
| 20260831180034 | 78 | 26 | 1.7 | 4.3 | 0.00 | 0.01 | 0.00 | 36 | 1016.6 |
| 20260831174530 | 77 | 309 | 0.0 | 4.3 | 0.00 | 0.01 | 0.00 | 39 | 1016.7 |
| 20260831173033 | 76 | 144 | 0.9 | 4.3 | 0.00 | 0.01 | 0.00 | 36 | 1017.1 |
| 20260831171527 | 76 | 294 | 0.9 | 3.5 | 0.00 | 0.01 | 0.00 | 36 | 1017.1 |
| 20260831170025 | 75 | 240 | 0.0 | 4.3 | 0.00 | 0.01 | 0.00 | 37 | 1017.4 |
| 20260831164524 | 75 | 300 | 0.0 | 4.3 | 0.00 | 0.01 | 0.00 | 40 | 1017.4 |
| 20260831163024 | 74 | 59 | 1.7 | 4.3 | 0.00 | 0.01 | 0.00 | 38 | 1017.7 |
| 20260831161522 | 74 | 132 | 0.9 | 7.0 | 0.00 | 0.01 | 0.00 | 42 | 1017.9 |
| 20260831160027 | 74 | 127 | 0.9 | 3.5 | 0.00 | 0.01 | 0.00 | 42 | 1018.0 |
| 20260831154519 | 73 | 109 | 0.0 | 3.5 | 0.00 | 0.01 | 0.00 | 48 | 1018.0 |
| 20260831153015 | 72 | 348 | 1.7 | 4.3 | 0.00 | 0.01 | 0.00 | 45 | 1018.1 |
| 20260831151513 | 71 | 79 | 0.9 | 8.7 | 0.00 | 0.01 | 0.00 | 49 | 1018.2 |
| 20260831150015 | 70 | 96 | 0.9 | 7.8 | 0.00 | 0.01 | 0.00 | 51 | 1018.3 |
| 20260831144517 | 70 | 9 | 1.7 | 6.1 | 0.00 | 0.01 | 0.00 | 52 | 1018.5 |
| 20260831143007 | 69 | 5 | 1.7 | 4.3 | 0.00 | 0.01 | 0.00 | 51 | 1018.7 |
| 20260831141503 | 68 | 50 | 1.7 | 6.1 | 0.00 | 0.01 | 0.00 | 53 | 1018.8 |
| 20260831140108 | 67 | 19 | 0.9 | 5.2 | 0.00 | 0.01 | 0.00 | 59 | 1018.7 |
| 20260831134600 | 65 | 43 | 2.6 | 7.8 | 0.00 | 0.01 | 0.00 | 60 | 1018.7 |
| 20260831133055 | 65 | 52 | 2.6 | 4.3 | 0.00 | 0.01 | 0.00 | 64 | 1018.5 |
| 20260831131552 | 65 | 28 | 1.7 | 3.5 | 0.00 | 0.01 | 0.00 | 68 | 1018.4 |
| 20260831130053 | 64 | 63 | 0.9 | 4.3 | 0.00 | 0.01 | 0.00 | 68 | 1018.4 |
| 20260831124551 | 65 | 44 | 0.9 | 2.6 | 0.00 | 0.01 | 0.00 | 70 | 1018.3 |
| 20260831123048 | 64 | 339 | 0.9 | 2.6 | 0.00 | 0.01 | 0.00 | 71 | 1018.3 |
| 20260831121544 | 61 | 296 | 0.0 | 1.7 | 0.00 | 0.01 | 0.00 | 83 | 1018.2 |
| 20260831120041 | 56 | 297 | 0.0 | 1.7 | 0.00 | 0.01 | 0.00 | 89 | 1018.1 |
| 20260831114541 | 54 | 287 | 0.0 | 0.9 | 0.00 | 0.01 | 0.00 | 90 | 1018.1 |
| 20260831113040 | 53 | 287 | 0.0 | 0.9 | 0.00 | 0.01 | 0.00 | 90 | 1018.1 |
| 20260831111602 | 52 | 287 | 0.0 | 0.9 | 0.00 | 0.01 | 0.00 | 89 | 1018.1 |
| 20260831110050 | 52 | 287 | 0.0 | 0.9 | 0.00 | 0.01 | 0.00 | 89 | 1017.9 |
| 20260831104535 | 52 | 287 | 0.0 | 0.9 | 0.00 | 0.01 | 0.00 | 88 | 1017.8 |
| 20260831103033 | 51 | 287 | 0.0 | 0.9 | 0.00 | 0.01 | 0.00 | 88 | 1017.6 |
| 20260831101531 | 52 | 287 | 0.0 | 0.0 | 0.00 | 0.01 | 0.00 | 88 | 1017.5 |
| 20260831100028 | 52 | 287 | 0.0 | 0.9 | 0.00 | 0.01 | 0.00 | 87 | 1017.5 |
| 20260831094529 | 53 | 287 | 0.0 | 0.9 | 0.00 | 0.01 | 0.00 | 87 | 1017.2 |
| 20260831093024 | 54 | 287 | 0.0 | 1.7 | 0.00 | 0.01 | 0.00 | 87 | 1017.1 |
| 20260831091521 | 54 | 287 | 0.0 | 0.9 | 0.00 | 0.01 | 0.00 | 87 | 1017.0 |
| 20260831090020 | 54 | 287 | 0.0 | 0.9 | 0.00 | 0.01 | 0.00 | 87 | 1016.9 |
| 20260831084532 | 54 | 288 | 0.0 | 1.7 | 0.00 | 0.01 | 0.00 | 87 | 1016.6 |
| 20260831083016 | 54 | 284 | 0.0 | 1.7 | 0.00 | 0.01 | 0.00 | 87 | 1016.6 |
| 20260831081521 | 55 | 285 | 0.0 | 0.9 | 0.00 | 0.01 | 0.00 | 87 | 1016.5 |
| 20260831080011 | 55 | 285 | 0.0 | 0.0 | 0.00 | 0.01 | 0.00 | 86 | 1016.5 |
| 20260831074529 | 56 | 285 | 0.0 | 0.9 | 0.00 | 0.01 | 0.00 | 86 | 1016.3 |
| 20260831073011 | 57 | 285 | 0.0 | 2.6 | 0.00 | 0.01 | 0.00 | 86 | 1016.3 |
| 20260831071505 | 57 | 254 | 0.0 | 1.7 | 0.00 | 0.01 | 0.00 | 87 | 1016.3 |
| 20260831070004 | 57 | 259 | 0.0 | 1.7 | 0.00 | 0.01 | 0.00 | 87 | 1016.1 |
| 20260831064507 | 57 | 300 | 0.0 | 2.6 | 0.00 | 0.01 | 0.00 | 87 | 1016.0 |
| 20260831063001 | 56 | 319 | 0.0 | 1.7 | 0.00 | 0.01 | 0.00 | 87 | 1015.8 |
| 20260831061600 | 56 | 49 | 0.0 | 1.7 | 0.00 | 0.01 | 0.00 | 87 | 1015.7 |
| 20260831060112 | 56 | 22 | 0.0 | 1.7 | 0.00 | 0.01 | 0.00 | 87 | 1015.6 |
| 20260831054556 | 56 | 41 | 0.0 | 1.7 | 0.00 | 0.01 | 0.00 | 87 | 1015.5 |
| 20260831053053 | 57 | 41 | 0.0 | 1.7 | 0.00 | 0.01 | 0.00 | 87 | 1015.5 |
| 20260831051552 | 57 | 41 | 0.0 | 1.7 | 0.00 | 0.01 | 0.00 | 87 | 1015.4 |
| 20260831050103 | 57 | 41 | 0.0 | 0.9 | 0.00 | 0.01 | 0.00 | 86 | 1015.1 |
| 20260831044547 | 58 | 41 | 0.0 | 0.9 | 0.00 | 0.01 | 0.00 | 86 | 1015.2 |
| 20260831043049 | 58 | 41 | 0.0 | 0.9 | 0.00 | 0.01 | 0.00 | 84 | 1015.1 |
| 20260831041547 | 59 | 41 | 0.0 | 0.9 | 0.00 | 0.01 | 0.00 | 83 | 1015.2 |
| 20260831040048 | 60 | 41 | 0.0 | 1.7 | 0.00 | 0.01 | 0.00 | 80 | 1015.2 |
| 20260831034540 | 62 | 41 | 0.0 | 0.9 | 0.00 | 0.01 | 0.01 | 77 | 1015.1 |
| 20260831033036 | 63 | 41 | 0.0 | 3.5 | 0.00 | 0.01 | 0.01 | 74 | 1015.1 |
| 20260831031536 | 64 | 319 | 0.0 | 3.5 | 0.00 | 0.01 | 0.01 | 72 | 1015.0 |
| 20260831030045 | 65 | 355 | 0.9 | 7.0 | 0.00 | 0.01 | 0.01 | 72 | 1015.3 |
| 20260831024536 | 66 | 5 | 3.5 | 8.7 | 0.00 | 0.01 | 0.01 | 72 | 1015.4 |
| 20260831023035 | 66 | 40 | 2.6 | 13.9 | 0.01 | 0.01 | 0.01 | 81 | 1015.4 |
| 20260831021535 | 66 | 5 | 0.9 | 7.8 | 0.01 | 0.01 | 0.01 | 85 | 1014.7 |
| 20260831020034 | 66 | 202 | 0.9 | 3.5 | 0.01 | 0.01 | 0.01 | 84 | 1014.3 |
| 20260831014536 | 67 | 175 | 1.7 | 4.3 | 0.01 | 0.01 | 0.01 | 83 | 1014.3 |
| 20260831013033 | 67 | 184 | 3.5 | 11.3 | 0.00 | 0.00 | 0.00 | 81 | 1014.1 |
| 20260831011538 | 67 | 218 | 0.0 | 1.7 | 0.00 | 0.00 | 0.00 | 81 | 1013.8 |
| 20260831010032 | 67 | 218 | 0.0 | 0.9 | 0.00 | 0.00 | 0.00 | 81 | 1013.6 |
| 20260831004531 | 67 | 218 | 0.0 | 1.7 | 0.00 | 0.00 | 0.00 | 80 | 1013.3 |
| 20260831003030 | 67 | 218 | 0.0 | 0.9 | 0.00 | 0.00 | 0.00 | 79 | 1013.2 |
| 20260831001530 | 67 | 218 | 0.0 | 0.9 | 0.00 | 0.00 | 0.00 | 79 | 1013.2 |
| 20260831000024 | 68 | 219 | 0.0 | 1.7 | 0.00 | 0.00 | 0.00 | 79 | 1013.0 |
| 20260830234523 | 68 | 219 | 0.0 | 0.9 | 0.00 | 0.00 | 0.00 | 79 | 1012.9 |
| 20260830233032 | 68 | 219 | 0.0 | 0.9 | 0.00 | 0.00 | 0.00 | 78 | 1012.7 |
| 20260830231523 | 69 | 219 | 0.0 | 1.7 | 0.00 | 0.00 | 0.00 | 76 | 1012.8 |
| 20260830230025 | 69 | 219 | 0.0 | 0.9 | 0.00 | 0.00 | 0.00 | 75 | 1012.8 |
| 20260830224520 | 70 | 219 | 0.0 | 0.9 | 0.00 | 0.00 | 0.00 | 74 | 1012.8 |
| 20260830223017 | 71 | 219 | 0.0 | 2.6 | 0.00 | 0.00 | 0.00 | 71 | 1013.0 |